CAPE
10 12 13 8 7 2 0 0 0 0 0 0 0 0 0 6 2 10 5 20 34 19 6 14 6 11 6 7 8 9 2 3 4 3 4 3 2 3 3 1 4 3 4
6 4 5 3 0 0 0 0 0 0 0 1 0 0 0 1 9 8 8 14 12 18 14 9 11 8 14 4 5 4 3 1 2 2 3 3 3 2 1 1 1 1 1
1 1 1 1 0 0 0 0 0 0 0 0 1 3 1 0 5 14 6 3 4 1 13 19 3 8 8 8 4 5 3 2 2 1 1 1 2 0 0 2 0 0 0
0 0 0 0 0 0 0 0 0 0 0 0 1 4 4 0 0 2 6 6 3 0 1 3 13 7 9 7 4 6 5 3 1 2 1 1 0 2 1 0 0 0 0
0 0 0 0 0 0 0 0 0 0 0 0 1 2 5 2 0 0 0 0 1 0 0 4 6 9 16 10 10 7 10 6 5 5 3 2 1 0 2 0 0 0 0
0 0 0 0 0 0 0 0 0 0 0 0 0 0 0 0 1 0 1 0 0 0 0 0 2 3 1 6 8 12 14 6 10 8 6 4 3 1 1 1 2 0 0
0 0 0 0 0 0 0 0 0 0 0 0 0 0 0 0 0 0 1 0 0 0 0 0 0 0 0 6 0 8 17 18 14 15 14 7 8 4 4 4 3 2 1
0 0 0 0 0 0 0 0 0 0 0 0 1 1 2 0 0 0 0 0 0 0 0 0 0 0 0 0 0 3 3 14 19 19 16 12 10 9 6 6 6 7 5
0 0 0 0 0 0 0 0 0 0 0 0 0 0 0 0 0 0 0 0 0 0 0 0 0 0 0 0 0 0 0 0 3 13 19 17 15 13 11 10 11 10 10
2 0 0 0 0 0 0 0 0 0 0 0 0 0 0 0 0 0 0 0 0 0 0 0 0 0 0 0 0 0 0 0 0 0 1 19 22 19 10 15 12 13 11
27 0 0 0 0 0 0 0 0 0 0 0 0 0 0 0 0 0 0 0 0 0 0 0 0 0 0 0 0 0 0 0 0 0 0 0 3 16 18 16 16 13 13
28 112 7 3 1 0 0 0 0 0 0 0 0 0 0 0 0 0 0 0 0 0 0 0 0 0 0 0 0 0 0 0 0 0 0 0 0 5 8 11 17 14 16
44 45 80 82 24 19 0 0 0 0 0 0 0 0 0 0 0 0 0 0 0 0 0 0 0 0 0 0 0 0 0 0 0 0 0 0 0 0 2 9 9 11 14
147 115 17 22 131 29 0 0 0 0 0 0 0 0 0 0 0 0 0 0 0 0 0 0 0 0 0 0 0 0 0 0 0 0 0 0 0 0 0 0 0 2 10
160 101 28 8 9 32 14 1 0 0 0 0 0 0 0 0 0 0 0 0 0 0 0 0 0 0 0 0 0 0 0 0 0 0 0 0 0 0 0 0 0 0 0
11 38 24 13 6 15 17 20 16 1 0 0 0 0 0 0 0 0 0 0 0 0 0 0 0 0 0 0 0 0 0 0 0 0 0 0 0 0 0 0 0 0 0
15 2 14 31 24 42 41 12 25 35 7 5 2 0 0 0 0 0 0 0 0 0 0 0 0 0 0 0 0 0 0 0 0 0 0 0 0 0 0 0 0 0 0
4 32 20 29 30 27 80 35 5 8 2 22 25 6 3 8 7 4 7 0 0 0 0 0 0 9 14 0 0 0 0 0 0 0 0 0 0 0 0 0 0 0 0
0 0 51 60 92 125 116 98 60 82 45 34 80 20 10 28 3 1 1 7 10 4 1 3 1 8 9 8 4 2 0 0 0 0 0 0 0 0 0 0 0 0 0
0 0 0 5 221 241 222 272 201 166 91 55 37 53 55 44 51 85 8 10 7 12 5 2 1 2 4 4 1 1 0 0 0 0 0 0 0 0 0 0 0 0 0
1 0 0 0 0 87 203 304 309 152 187 104 78 73 53 40 33 45 67 26 16 8 5 2 2 2 1 1 0 0 0 0 0 4 2 0 0 0 0 0 0 0 0
0 0 0 0 0 0 0 0 0 21 60 88 82 134 300 9 1 0 0 0 0 19 1 3 0 1 0 3 4 1 3 1 1 0 1 5 0 0 0 0 0 0 0
9 4 2 1 1 0 0 1 1 1 4 9 40 140 141 50 6 212 35 1 1 1 1 1 2 1 1 0 2 1 1 1 2 9 0 4 0 0 0 0 0 0 0
12 6 5 1 3 0 0 0 0 0 0 5 12 16 49 51 130 65 126 153 39 0 0 0 2 2 5 31 43 14 3 1 0 1 0 0 0 1 1 2 0 0 0
9 21 1 1 1 1 0 0 0 1 5 6 4 8 1 6 0 0 0 2 2 5 35 0 0 0 0 0 3 16 2 5 0 0 0 0 0 0 1 22 5 0 0
7 2 3 2 0 1 0 0 0 0 0 0 0 0 0 0 0 0 0 2 5 3 7 0 0 0 0 0 1 0 0 0 0 0 0 0 1 1 0 0 6 2 0
CIN
0 0 0 0 0 0 0 0 0 0 0 0 0 0 0 0 0 0 0 -2 -1 0 -1 0 0 0 0 0 -1 -1 0 0 0 0 0 0 0 0 0 0 0 0 0
0 0 0 0 0 0 0 0 0 0 0 0 0 0 0 0 0 0 0 0 -6 -4 -4 0 0 0 0 -1 -1 0 0 0 0 0 0 0 0 0 0 0 0 0 0
0 0 0 0 0 0 0 0 0 0 0 0 0 0 0 0 0 0 0 0 -1 -16 -2 0 -1 -1 0 0 0 0 0 0 0 0 0 0 0 0 0 0 0 0 0
0 0 0 0 0 0 0 0 0 0 0 0 0 0 0 0 0 0 0 0 0 0 0 -1 0 0 0 -1 0 0 0 0 0 0 0 0 0 0 0 0 0 0 0
0 0 0 0 0 0 0 0 0 0 0 0 0 0 0 0 0 0 0 0 0 0 0 -6 -2 -2 -1 0 0 0 0 0 0 0 0 0 0 0 0 0 0 0 0
0 0 0 0 0 0 0 0 0 0 0 0 0 0 0 0 0 0 0 0 0 0 0 0 0 0 -2 -1 0 0 0 0 0 0 0 0 0 0 0 0 0 0 0
0 0 0 0 0 0 0 0 0 0 0 0 0 0 0 0 0 0 0 0 0 0 0 0 0 0 0 -2 0 0 0 0 0 0 0 0 0 0 0 0 0 0 0
0 0 0 0 0 0 0 0 0 0 0 0 0 0 0 0 0 0 0 0 0 0 0 0 0 0 0 0 0 0 0 0 0 0 0 0 0 0 0 0 0 0 0
0 0 0 0 0 0 0 0 0 0 0 0 0 0 0 0 0 0 0 0 0 0 0 0 0 0 0 0 0 0 0 0 -1 0 0 0 0 0 0 0 0 0 0
0 0 0 0 0 0 0 0 0 0 0 0 0 0 0 0 0 0 0 0 0 0 0 0 0 0 0 0 0 0 0 0 0 0 0 0 0 0 0 0 0 0 0
-45 0 0 0 0 0 0 0 0 0 0 0 0 0 0 0 0 0 0 0 0 0 0 0 0 0 0 0 0 0 0 0 0 0 0 0 0 0 0 0 0 0 0
-94 -32 -56 -35 -35 0 0 0 0 0 0 0 0 0 0 0 0 0 0 0 0 0 0 0 0 0 0 0 0 0 0 0 0 0 0 0 0 0 0 0 0 0 0
-41 -108 -58 -54 -71 -121 0 0 0 0 0 0 0 0 0 0 0 0 0 0 0 0 0 0 0 0 0 0 0 0 0 0 0 0 0 0 0 0 0 0 0 0 0
-29 -50 -118 -97 -57 -87 0 0 0 0 0 0 0 0 0 0 0 0 0 0 0 0 0 0 0 0 0 0 0 0 0 0 0 0 0 0 0 0 0 0 0 0 0
-24 -21 -61 -84 -76 -75 -114 0 0 0 0 0 0 0 0 0 0 0 0 0 0 0 0 0 0 0 0 0 0 0 0 0 0 0 0 0 0 0 0 0 0 0 0
-1 -12 -40 -52 -40 -51 -47 -75 -19 0 0 0 0 0 0 0 0 0 0 0 0 0 0 0 0 0 0 0 0 0 0 0 0 0 0 0 0 0 0 0 0 0 0
-62 0 -32 -11 -14 -9 -19 -45 -60 -29 -29 -117 0 0 0 0 0 0 0 0 0 0 0 0 0 0 0 0 0 0 0 0 0 0 0 0 0 0 0 0 0 0 0
-2 -17 -4 -13 -18 -15 -19 -53 -97 -149 -63 -98 -86 0 -68 0 0 0 0 0 0 0 0 0 0 0 0 0 0 0 0 0 0 0 0 0 0 0 0 0 0 0 0
0 0 -35 -36 -44 -39 -47 -62 -69 -65 -56 -75 -52 -56 -116 -82 0 -28 0 0 -19 0 -1 0 0 0 0 0 0 0 0 0 0 0 0 0 0 0 0 0 0 0 0
0 0 0 -19 -11 -7 -6 -17 -29 -43 -68 -74 -87 -65 -66 -73 -61 -59 -127 -100 -46 0 0 0 0 0 0 0 -1 0 0 -1 0 0 0 0 0 0 0 0 0 0 0
0 0 0 0 0 -50 -24 -13 -4 -14 -32 -66 -49 -56 -55 -66 -63 -54 -24 -27 -29 0 0 0 0 0 0 0 0 0 0 0 0 0 0 0 0 0 0 0 0 0 0
0 0 0 0 0 0 0 0 0 -35 -15 -10 -35 -19 -5 -15 -1 0 0 0 0 -4 0 0 -1 0 0 -1 -1 0 0 0 0 0 0 0 0 0 0 0 0 0 0
0 0 0 0 0 0 0 0 0 0 -1 0 -16 -4 -3 -12 -18 0 -2 0 0 0 0 -19 -13 0 0 0 -42 0 0 0 0 -2 0 0 0 0 0 0 0 0 0
0 0 0 0 0 0 0 0 0 0 0 -4 -3 -5 -28 -15 -1 -6 -1 0 -48 -6 0 0 0 0 0 -39 -24 -6 -3 -12 -1 -1 0 0 0 -1 0 0 0 0 0
0 0 0 0 0 0 0 0 0 0 0 0 0 -4 0 -1 0 0 0 0 0 -26 -69 0 0 0 0 0 -5 -2 -10 -9 0 0 -1 0 0 -1 -1 0 0 0 0
0 0 0 0 0 0 0 0 0 0 0 0 0 0 0 0 0 0 0 0 0 0 0 0 0 0 0 0 0 0 0 0 0 0 0 0 0 0 0 0 0 0 0
Wind_Speed
9 9 9 8 7 8 8 7 7 7 7 8 7 8 7 6 7 5 5 5 9 11 7 8 9 9 7 7 9 10 8 7 8 8 8 7 7 8 7 7 7 8 8
9 9 9 8 8 8 7 7 8 7 7 7 7 7 7 6 6 6 4 6 3 4 8 7 10 8 10 8 5 6 7 7 7 5 7 5 7 5 5 4 5 5 5
10 11 10 9 8 7 9 7 6 6 6 5 7 6 6 6 5 6 5 3 6 4 5 6 6 7 7 8 8 7 7 5 6 7 6 5 5 4 3 2 3 3 3
11 10 10 10 9 8 8 6 6 7 6 6 5 5 5 5 5 5 4 5 4 4 3 6 6 5 7 6 7 7 7 7 7 6 6 7 5 5 5 2 2 1 1
12 10 10 10 11 8 6 6 7 7 7 6 5 5 4 4 5 5 6 6 6 5 5 6 7 7 9 9 9 10 9 8 9 8 8 7 8 7 6 6 5 4 4
12 11 10 11 10 8 7 7 8 7 6 6 5 4 4 4 4 5 7 6 6 7 7 7 6 7 6 8 11 11 12 10 11 11 10 10 10 10 10 9 8 7 7
12 12 10 11 11 10 10 10 8 9 5 6 5 3 4 6 7 7 7 7 8 9 8 8 6 6 6 11 13 14 15 14 13 13 13 13 13 12 12 12 11 11 10
13 12 12 12 13 9 10 11 11 7 5 8 4 3 4 6 9 10 9 9 10 8 9 10 10 10 9 8 11 14 16 16 15 15 16 15 15 15 15 14 14 14 13
14 14 14 12 13 11 10 12 12 14 9 8 8 3 3 4 2 4 11 10 11 9 10 11 12 12 12 11 10 13 14 14 17 18 17 17 17 16 16 17 16 16 16
15 15 15 14 14 10 11 11 11 12 11 10 8 7 4 2 3 2 4 7 10 12 13 11 11 13 13 11 15 15 11 14 16 19 20 19 19 19 19 18 19 19 18
16 17 16 15 13 11 13 13 13 12 10 10 10 6 8 5 5 6 7 4 5 9 11 11 11 11 14 13 13 15 17 18 18 20 22 23 22 21 21 21 21 21 20
10 16 17 14 14 13 13 13 13 15 12 10 9 9 7 4 7 7 7 9 8 6 7 9 11 11 12 12 15 18 16 19 20 21 23 23 23 23 23 23 23 23 23
9 13 16 15 14 15 15 14 13 13 13 12 13 11 10 9 5 3 5 4 4 4 5 7 8 10 10 11 14 17 21 20 22 23 23 24 25 25 25 24 24 25 25
9 10 14 14 16 16 14 15 11 11 13 12 16 14 11 10 10 10 10 7 6 5 3 7 6 9 9 9 13 11 15 17 23 23 24 25 26 26 26 26 26 25 24
9 9 11 12 13 14 15 16 12 14 14 14 13 14 13 11 10 10 10 10 9 9 11 10 5 9 8 9 11 11 13 17 21 24 24 25 26 27 27 26 27 27 27
1 4 11 13 13 13 13 14 12 13 14 11 10 15 15 12 12 11 10 10 10 11 12 9 10 10 7 7 10 13 14 16 17 18 23 25 26 27 27 28 28 28 28
10 8 10 11 9 11 12 11 12 12 14 13 13 15 18 16 12 11 10 10 10 11 13 13 12 11 12 14 10 11 13 11 10 21 23 24 26 27 27 27 29 29 29
8 10 11 10 10 7 9 12 13 12 13 15 16 15 17 11 17 13 11 14 12 12 10 18 13 11 14 14 14 15 11 11 12 15 21 24 26 27 28 28 28 29 30
6 7 7 8 11 12 12 12 13 13 14 16 16 14 16 16 13 11 12 12 12 11 11 11 14 11 10 9 12 12 12 12 13 18 17 21 24 26 28 29 29 30 29
7 6 5 7 7 8 10 12 12 13 13 14 15 14 14 15 17 16 13 14 13 12 10 10 11 12 10 11 9 10 9 9 12 12 15 17 17 24 28 27 27 28 28
8 8 8 7 6 7 6 9 11 13 12 12 12 12 12 13 15 15 10 13 12 11 10 10 10 11 11 8 8 9 10 11 15 12 10 11 10 11 14 23 23 28 29
7 8 8 9 9 6 11 10 9 9 10 11 12 15 15 14 16 18 19 19 17 13 12 11 11 12 13 10 11 11 12 11 12 8 11 13 10 11 11 12 21 26 26
6 6 7 7 9 10 15 12 9 8 9 11 11 10 9 8 10 15 15 19 20 21 22 18 17 14 14 12 13 13 12 13 14 11 11 13 10 13 13 13 20 24 26
7 7 8 8 8 7 15 15 12 8 8 10 11 11 10 10 10 10 13 15 14 13 14 13 18 19 19 17 16 14 15 16 15 12 7 14 10 13 13 13 17 24 29
6 4 7 8 9 9 16 16 12 4 4 5 6 6 7 7 12 11 8 8 11 11 10 17 21 20 19 20 20 13 12 11 13 12 8 10 10 12 12 14 13 21 26
3 6 8 9 10 8 16 18 15 6 6 6 6 7 10 11 12 10 6 7 9 9 9 11 11 11 12 15 20 16 14 14 13 14 9 7 12 8 6 10 13 12 13
Wind_Direction
160 157 151 159 160 152 153 150 144 144 143 144 143 140 137 137 133 135 144 145 157 142 148 140 129 133 134 132 129 137 141 135 122 127 117 110 108 106 93 91 71 69 56
166 162 158 162 157 159 155 154 155 156 152 155 151 153 145 146 157 151 151 148 92 94 151 161 150 162 147 164 147 152 149 149 137 130 121 131 133 123 113 98 90 72 72
172 167 166 167 161 160 157 148 158 157 155 164 163 165 158 154 160 166 170 163 160 149 176 171 182 165 182 179 168 187 169 162 168 158 163 165 156 156 143 141 105 92 63
172 176 175 173 165 156 162 169 177 170 169 173 168 177 175 172 177 186 196 197 197 196 176 210 198 209 200 198 197 198 187 196 210 188 193 183 195 209 197 194 171 213 92
177 181 180 174 173 170 173 172 173 184 174 174 179 185 189 192 192 203 212 215 218 230 218 173 225 241 214 220 223 216 214 215 223 211 213 215 210 228 224 230 228 228 234
182 183 181 175 173 171 168 171 174 174 184 171 176 195 206 210 226 227 224 226 228 229 229 231 215 217 237 235 237 239 236 225 225 226 221 226 224 226 235 233 229 233 239
185 189 185 179 179 183 173 170 163 171 160 164 163 197 222 225 229 229 228 232 232 233 232 232 232 238 219 230 246 247 250 232 227 231 227 226 232 232 238 242 241 239 236
187 188 190 188 190 186 176 173 172 170 176 178 188 199 228 214 229 229 227 228 233 240 238 234 236 234 241 242 236 239 243 252 247 233 233 233 231 234 244 241 246 248 246
194 192 195 191 192 195 192 186 183 181 182 186 202 220 188 237 258 187 225 230 233 233 239 242 238 237 235 241 243 235 240 250 258 257 247 233 236 239 239 247 245 247 249
200 199 201 201 195 195 199 197 194 194 189 186 195 222 237 226 251 262 199 224 231 240 242 242 241 239 238 238 238 246 236 228 240 250 254 256 242 241 245 241 248 246 248
207 202 201 202 207 205 201 196 192 196 199 198 200 186 216 216 230 242 276 233 216 229 233 240 243 241 237 237 238 238 223 231 234 239 243 246 252 247 246 242 243 247 249
200 209 206 201 201 209 210 204 198 199 200 203 203 206 195 180 205 220 238 258 266 248 225 226 234 235 237 238 237 239 222 223 228 234 239 242 243 247 247 247 244 244 243
203 205 201 201 203 204 206 204 200 203 205 205 207 215 224 231 214 206 232 252 259 287 253 230 233 238 239 235 240 228 229 223 227 230 233 237 239 241 243 245 248 248 248
214 209 206 209 211 201 205 206 205 207 206 212 217 219 222 228 226 229 241 239 254 230 250 250 232 228 229 238 242 230 243 226 228 231 232 232 234 236 238 239 241 244 246
217 212 207 211 210 208 201 203 210 210 211 212 219 221 226 231 233 233 235 232 234 262 264 269 244 203 221 229 237 231 235 239 226 227 230 234 234 233 234 235 236 238 240
153 235 214 205 212 207 208 199 209 216 219 220 220 228 232 234 236 233 234 239 234 240 262 252 250 247 205 225 232 230 237 235 227 227 231 229 234 236 233 231 232 234 236
229 215 209 228 199 201 199 203 215 218 222 229 225 229 237 231 237 236 232 235 236 234 249 259 265 259 246 241 236 228 235 231 240 225 229 233 233 235 237 234 232 230 231
300 229 214 207 206 195 199 210 211 211 215 223 226 227 237 238 237 238 232 229 230 232 235 258 259 260 245 249 256 256 244 238 240 234 222 224 233 233 234 232 231 233 231
315 326 274 218 221 220 207 210 214 218 223 232 231 225 230 236 227 227 225 232 232 230 229 239 256 259 255 250 255 253 252 247 246 244 232 229 234 231 233 235 233 231 233
311 302 297 312 243 224 224 229 231 228 225 230 237 234 233 235 235 238 231 230 234 239 236 237 243 254 250 248 238 250 254 232 252 241 233 234 235 234 234 236 232 233 233
306 302 305 306 321 277 243 235 235 242 238 237 236 237 235 239 242 243 244 245 242 239 238 243 246 246 246 240 226 241 243 253 252 250 248 241 227 232 233 235 236 234 234
303 300 303 307 305 297 322 275 242 258 266 251 252 252 249 233 238 231 234 244 249 249 244 246 251 245 243 242 244 236 241 248 265 204 239 253 228 231 237 229 227 229 227
306 294 295 294 292 293 5 347 319 270 265 263 265 264 262 263 243 253 241 238 245 241 240 255 259 249 255 248 250 255 241 244 250 250 234 258 233 239 241 240 226 221 224
314 303 293 284 276 42 0 349 326 273 254 256 256 259 263 268 263 257 258 263 252 239 235 237 245 254 254 255 254 254 258 258 257 252 222 258 241 248 245 247 224 223 226
313 3 40 44 80 44 6 358 338 322 311 302 310 315 334 314 33 1 330 303 291 282 263 241 248 252 245 246 247 264 262 261 265 257 236 244 248 257 248 247 242 217 227
9 81 77 67 53 45 18 9 5 19 25 355 5 358 68 20 340 329 329 311 298 298 303 308 299 283 259 258 247 245 257 260 259 273 239 223 251 245 262 231 240 242 234